This demonstration page uses our WeatherBlox Daily Observations layout. Learn more.

39.08367, -84.50855

Hourly Observations for October 20, 2019

Temp ( °F °C ) Dew Point ( °F °C ) Humidity (%) Winds ( mph kmh ) Pressure ( in mb ) Visibility ( mi km ) Precip ( " mm )
12:53 am 00:53 Mostly Clear 52 11.1 50 10 93 93 Calm 29.83 1010 10 16.0934 0 0
1:53 am 01:53 Mostly Cloudy 52 11.1 50 10 93 93 Calm 29.82 1010 10 16.0934 0 0
2:53 am 02:53 Mostly Cloudy 52 11.1 50 10 93 93 Calm 29.82 1010 10 16.0934 0 0
3:53 am 03:53 Mostly Cloudy 52 11.1 50 10 93 93 Calm 29.81 1010 10 16.0934 0 0
4:53 am 04:53 Partly Cloudy 52 11.1 50 10 93 93 Calm 29.81 1010 10 16.0934 0 0
5:53 am 05:53 Mostly Cloudy 51 10.6 50 10 96 96 Calm 29.83 1010 10 16.0934 0 0
6:19 am 06:19 Cloudy 52 11.1 51 10.6 97 97 Calm 29.86 1011 10 16.0934 0 0
6:53 am 06:53 Cloudy 53 11.7 51 10.6 93 93 Calm 29.85 1011 8 12.87472 0 0
7:53 am 07:53 Cloudy 54 12.2 52 11.1 93 93 ENE 3 6 29.86 1011 10 16.0934 0 0
8:53 am 08:53 Mostly Sunny 53 11.7 51 10.6 93 93 Calm 29.88 1012 10 16.0934 0 0
9:53 am 09:53 Cloudy 58 14.4 54 12.2 87 87 Calm 29.91 1013 10 16.0934 0 0
10:53 am 10:53 Cloudy 61 16.1 56 13.3 84 84 SSW 3 6 29.91 1013 10 16.0934 0 0
11:53 am 11:53 Sunny 66 18.9 56 13.3 70 70 SSW 3 6 29.91 1013 10 16.0934 0 0
12:53 pm 12:53 Sunny 69 20.6 57 13.9 66 66 Calm 29.9 1013 10 16.0934 0 0
1:53 pm 13:53 Sunny 72 22.2 53 11.7 52 52 Calm 29.89 1012 10 16.0934 0 0
2:53 pm 14:53 Sunny 74 23.3 53 11.7 48 48 SSW 3 6 29.88 1012 8 12.87472 0 0
3:53 pm 15:53 Sunny 75 23.9 52 11.1 45 45 Calm 29.88 1012 10 16.0934 0 0
4:53 pm 16:53 Partly Cloudy 74 23.3 55 12.8 52 52 SSE 7 11 29.88 1012 10 16.0934 0 0
5:53 pm 17:53 Partly Cloudy 72 22.2 56 13.3 57 57 SSE 5 7 29.88 1012 10 16.0934 0 0
6:53 pm 18:53 Mostly Clear 67 19.4 56 13.3 68 68 SSE 6 9 29.89 1012 10 16.0934 0 0
7:53 pm 19:53 Mostly Clear 62 16.7 56 13.3 80 80 Calm 29.91 1013 10 16.0934 0 0
8:53 pm 20:53 Mostly Clear 63 17.2 57 13.9 81 81 Calm 29.94 1014 10 16.0934 0 0
9:53 pm 21:53 Clear 61 16.1 57 13.9 87 87 Calm 29.95 1014 10 16.0934 0 0
10:53 pm 22:53 Mostly Cloudy 61 16.1 57 13.9 87 87 Calm 29.97 1015 10 16.0934 0 0
11:53 pm 23:53 Clear 59 15 57 13.9 93 93 SSW 3 6 29.96 1015 10 16.0934 0 0

Powered by AerisWeather